Find Starlink 2322

NORAD ID: 47791 Int'l Des: 2021-018 Owner: SPXS Country: US Constellation: starlink operational
LEOCIRCULAR

現在のビュー

3D地球を読み込み中...

About Starlink 2322

Starlink 2322 (NORAD 47791) is a starlink constellation satellite (v1.0) launched Mar 11, 2021 by SPXS of US. It operates in LEO, CIRCULAR orbit with a mass of 260.00 kg.

次回通過

Passes for default location (London). Set your location on the main map for personalized predictions.

高度履歴

Loading altitude history...

軌道要素

1 47791U 21018E 26264.11937086 .00037606 00000-0 86290-3 0 9995
2 47791 53.1581 50.5016 0002121 306.4146 53.6665 15.42383776306725
Epoch: Sep 21, 2026 • Age: 19 hours

現在のステータス

高度 439.5 km
遠地点 / 近地点 N/A
速度 7.65 km/s
衛星直下点 -4.38°S, 80.24°E
打ち上げ日 Mar 11, 2021
運用期間 5.5 years
タイプ internet

技術仕様

分類 Payload
質量 260.00 kg
乾燥質量 248.00 kg
長さ 0.20 m
スパン 9.00 m
形状 ? Box + pan
製造者 SPXS
バスタイプ Starlink
フェーズステータス In Orbit
所有者/国 SPXS/US

Most Searched